UKV882 EGPH-ESGG

Flight info

Callsign UKV882
Flight time 1h 34m
Altitude 37000
Route GRICE P600 ASNUD DCT ALOTI DCT AMSEV DCT KUVUS N607 MAKUR
Aircraft A320/M-SDE3FGIKRWXY/S

Departure

Time 2026-04-21 13:36
Airport Edinburgh Airport (EGPH)

Arrival

Time 2026-04-21 15:11
Airport Göteborg Landvetter Airport (ESGG)
Time Latitude Longitude Altitude Speed Heading
2026-04-21 12:58 55.94919 -3.36425 150 ft 0 kts 149°
2026-04-21 13:18 55.94927 -3.36434 149 ft 3 kts 149°
2026-04-21 13:19 55.94945 -3.36452 149 ft 3 kts 154°
2026-04-21 13:19 55.94963 -3.36466 149 ft 3 kts 165°
2026-04-21 13:19 55.94982 -3.36470 149 ft 3 kts 201°
2026-04-21 13:19 55.94991 -3.36460 149 ft 1 kts 239°
2026-04-21 13:20 55.94991 -3.36459 149 ft 0 kts 239°
2026-04-21 13:23 55.94981 -3.36489 149 ft 9 kts 238°
2026-04-21 13:23 55.94940 -3.36602 149 ft 15 kts 237°
2026-04-21 13:23 55.94897 -3.36739 149 ft 11 kts 250°
2026-04-21 13:24 55.94922 -3.36846 149 ft 8 kts 286°
2026-04-21 13:24 55.94910 -3.36943 149 ft 8 kts 242°
2026-04-21 13:24 55.94882 -3.37033 149 ft 8 kts 239°
2026-04-21 13:24 55.94852 -3.37123 149 ft 9 kts 238°
2026-04-21 13:25 55.94820 -3.37215 149 ft 9 kts 238°
2026-04-21 13:25 55.94789 -3.37308 149 ft 9 kts 239°
2026-04-21 13:25 55.94756 -3.37403 149 ft 9 kts 239°
2026-04-21 13:25 55.94724 -3.37499 149 ft 9 kts 239°
2026-04-21 13:26 55.94691 -3.37596 149 ft 9 kts 239°
2026-04-21 13:26 55.94658 -3.37695 149 ft 9 kts 239°
2026-04-21 13:26 55.94624 -3.37795 149 ft 9 kts 239°
2026-04-21 13:26 55.94590 -3.37897 149 ft 10 kts 239°
2026-04-21 13:27 55.94556 -3.37999 149 ft 10 kts 239°
2026-04-21 13:27 55.94522 -3.38103 149 ft 10 kts 239°
2026-04-21 13:27 55.94487 -3.38207 149 ft 10 kts 239°
2026-04-21 13:27 55.94452 -3.38312 149 ft 10 kts 238°
2026-04-21 13:28 55.94415 -3.38417 149 ft 10 kts 239°
2026-04-21 13:28 55.94378 -3.38522 149 ft 10 kts 237°
2026-04-21 13:28 55.94344 -3.38623 149 ft 9 kts 240°
2026-04-21 13:28 55.94312 -3.38723 149 ft 9 kts 240°
2026-04-21 13:29 55.94290 -3.38792 149 ft 4 kts 241°
2026-04-21 13:29 55.94287 -3.38843 149 ft 4 kts 285°
2026-04-21 13:29 55.94306 -3.38881 149 ft 4 kts 328°
2026-04-21 13:29 55.94322 -3.38898 149 ft 1 kts 328°
2026-04-21 13:30 55.94323 -3.38899 149 ft 0 kts 328°
2026-04-21 13:34 55.94332 -3.38909 149 ft 8 kts 328°
2026-04-21 13:34 55.94383 -3.38967 149 ft 7 kts 329°
2026-04-21 13:34 55.94424 -3.38968 149 ft 6 kts 43°
2026-04-21 13:35 55.94441 -3.38924 149 ft 4 kts 58°
2026-04-21 13:35 55.94446 -3.38908 149 ft 0 kts 60°
2026-04-21 13:35 55.94447 -3.38906 149 ft 1 kts 60°
2026-04-21 13:36 55.94559 -3.38565 150 ft 77 kts 59°
2026-04-21 13:36 55.94973 -3.37333 167 ft 148 kts 59°
2026-04-21 13:36 55.95539 -3.35637 694 ft 168 kts 60°
2026-04-21 13:36 55.96214 -3.33878 1618 ft 174 kts 49°
2026-04-21 13:37 55.97097 -3.32419 2533 ft 173 kts 43°
2026-04-21 13:37 55.98048 -3.30997 2970 ft 192 kts 44°
2026-04-21 13:37 55.99156 -3.29252 2938 ft 222 kts 45°
2026-04-21 13:37 56.00421 -3.27525 3056 ft 237 kts 31°
2026-04-21 13:38 56.02051 -3.26773 3498 ft 251 kts
2026-04-21 13:38 56.03785 -3.27476 4329 ft 263 kts 338°
2026-04-21 13:38 56.05370 -3.29171 5252 ft 270 kts 328°
2026-04-21 13:38 56.06749 -3.31537 5782 ft 281 kts 307°
2026-04-21 13:39 56.07505 -3.34775 6044 ft 286 kts 285°
2026-04-21 13:39 56.07894 -3.38267 6054 ft 286 kts 281°
2026-04-21 13:39 56.08264 -3.41762 6102 ft 286 kts 283°
2026-04-21 13:39 56.08729 -3.45226 6360 ft 287 kts 286°
2026-04-21 13:40 56.09258 -3.48695 6618 ft 290 kts 286°
2026-04-21 13:40 56.09789 -3.52168 6620 ft 289 kts 289°
2026-04-21 13:40 56.10596 -3.55457 6606 ft 288 kts 300°
2026-04-21 13:40 56.11599 -3.58559 6629 ft 288 kts 304°
2026-04-21 13:41 56.12653 -3.61608 6635 ft 288 kts 303°
2026-04-21 13:41 56.13763 -3.64577 6603 ft 285 kts 314°
2026-04-21 13:41 56.15317 -3.66674 6600 ft 277 kts 341°
2026-04-21 13:41 56.17151 -3.67607 6645 ft 274 kts 353°
2026-04-21 13:42 56.19023 -3.67966 6612 ft 268 kts
2026-04-21 13:42 56.20792 -3.67216 6621 ft 258 kts 30°
2026-04-21 13:42 56.22271 -3.65438 7071 ft 257 kts 41°
2026-04-21 13:42 56.23696 -3.63436 7895 ft 262 kts 42°
2026-04-21 13:43 56.25166 -3.61445 8741 ft 268 kts 40°
2026-04-21 13:43 56.26697 -3.59483 9565 ft 273 kts 39°
2026-04-21 13:43 56.27755 -3.58155 10119 ft 275 kts 39°
2026-04-21 13:43 56.29327 -3.56162 10938 ft 279 kts 40°
2026-04-21 13:44 56.30947 -3.54067 11436 ft 296 kts 40°
2026-04-21 13:44 56.32664 -3.51836 11863 ft 313 kts 39°
2026-04-21 13:44 56.34476 -3.49489 12309 ft 328 kts 39°
2026-04-21 13:44 56.36373 -3.47040 12778 ft 341 kts 39°
2026-04-21 13:45 56.38309 -3.44548 13497 ft 344 kts 39°
2026-04-21 13:45 56.40268 -3.42025 14209 ft 347 kts 39°
2026-04-21 13:45 56.42237 -3.39473 14907 ft 350 kts 39°
2026-04-21 13:45 56.44231 -3.36888 15571 ft 354 kts 38°
2026-04-21 13:46 56.46290 -3.34312 16237 ft 357 kts 38°
2026-04-21 13:46 56.48354 -3.31764 16871 ft 360 kts 37°
2026-04-21 13:46 56.50433 -3.29203 17480 ft 363 kts 37°
2026-04-21 13:46 56.52534 -3.26612 18075 ft 366 kts 37°
2026-04-21 13:47 56.54644 -3.23997 18658 ft 369 kts 37°
2026-04-21 13:47 56.56766 -3.21358 19232 ft 371 kts 37°
2026-04-21 13:47 56.58904 -3.18697 19787 ft 374 kts 37°
2026-04-21 13:47 56.61052 -3.16021 20329 ft 376 kts 37°
2026-04-21 13:48 56.63216 -3.13321 20862 ft 378 kts 37°
2026-04-21 13:48 56.65394 -3.10603 21368 ft 381 kts 37°
2026-04-21 13:48 56.67561 -3.07807 21854 ft 382 kts 41°
2026-04-21 13:48 56.69424 -3.04386 22313 ft 381 kts 54°
2026-04-21 13:49 56.70725 -3.00217 22770 ft 380 kts 68°
2026-04-21 13:49 56.71681 -2.95718 23225 ft 382 kts 71°
2026-04-21 13:49 56.72571 -2.91136 23671 ft 384 kts 71°
2026-04-21 13:49 56.73475 -2.86540 24100 ft 387 kts 71°
2026-04-21 13:50 56.74427 -2.81938 24515 ft 389 kts 70°
2026-04-21 13:50 56.75420 -2.77335 24907 ft 392 kts 69°
2026-04-21 13:50 56.76428 -2.72713 25277 ft 394 kts 69°
2026-04-21 13:50 56.77432 -2.68046 25660 ft 397 kts 69°
2026-04-21 13:51 56.78429 -2.63325 26017 ft 400 kts 70°
2026-04-21 13:51 56.79420 -2.58577 26382 ft 402 kts 70°
2026-04-21 13:51 56.80415 -2.53803 26741 ft 404 kts 70°
2026-04-21 13:51 56.81421 -2.49001 27088 ft 406 kts 70°
2026-04-21 13:52 56.82435 -2.44171 27404 ft 409 kts 70°
2026-04-21 13:52 56.83455 -2.39300 27731 ft 411 kts 70°
2026-04-21 13:52 56.84473 -2.34419 28049 ft 413 kts 70°
2026-04-21 13:52 56.85494 -2.29501 28361 ft 415 kts 70°
2026-04-21 13:53 56.86517 -2.24556 28665 ft 417 kts 70°
2026-04-21 13:53 56.87545 -2.19581 28953 ft 419 kts 70°
2026-04-21 13:53 56.88576 -2.14579 29243 ft 421 kts 70°
2026-04-21 13:53 56.89607 -2.09561 29520 ft 423 kts 70°
2026-04-21 13:54 56.90645 -2.04497 29800 ft 425 kts 70°
2026-04-21 13:54 56.91680 -1.99432 30068 ft 427 kts 70°
2026-04-21 13:54 56.92722 -1.94327 30299 ft 429 kts 70°
2026-04-21 13:54 56.93769 -1.89186 30521 ft 432 kts 70°
2026-04-21 13:55 56.94819 -1.84024 30742 ft 434 kts 70°
2026-04-21 13:55 56.95874 -1.78823 30975 ft 436 kts 70°
2026-04-21 13:55 56.96925 -1.73609 31331 ft 435 kts 70°
2026-04-21 13:55 56.97972 -1.68402 31611 ft 436 kts 70°
2026-04-21 13:56 56.99021 -1.63186 31916 ft 436 kts 70°
2026-04-21 13:56 57.00065 -1.57980 32213 ft 436 kts 70°
2026-04-21 13:56 57.01111 -1.52751 32495 ft 436 kts 70°
2026-04-21 13:56 57.02154 -1.47526 32796 ft 436 kts 70°
2026-04-21 13:57 57.03193 -1.42294 33046 ft 437 kts 70°
2026-04-21 13:57 57.04230 -1.37055 33329 ft 436 kts 70°
2026-04-21 13:57 57.05265 -1.31817 33605 ft 436 kts 70°
2026-04-21 13:57 57.06298 -1.26575 33836 ft 437 kts 70°
2026-04-21 13:58 57.07331 -1.21325 34092 ft 437 kts 70°
2026-04-21 13:58 57.08364 -1.16072 34334 ft 437 kts 70°
2026-04-21 13:58 57.09394 -1.10816 34568 ft 437 kts 70°
2026-04-21 13:58 57.10430 -1.05496 34842 ft 436 kts 70°
2026-04-21 13:59 57.11449 -1.00246 35037 ft 437 kts 70°
2026-04-21 13:59 57.12471 -0.94971 35224 ft 437 kts 70°
2026-04-21 13:59 57.13493 -0.89701 35429 ft 438 kts 70°
2026-04-21 13:59 57.14516 -0.84416 35630 ft 438 kts 70°
2026-04-21 14:00 57.15533 -0.79132 35818 ft 438 kts 70°
2026-04-21 14:00 57.16544 -0.73849 36003 ft 438 kts 70°
2026-04-21 14:00 57.17557 -0.68543 36186 ft 438 kts 70°
2026-04-21 14:00 57.18566 -0.63249 36360 ft 438 kts 70°
2026-04-21 14:01 57.19577 -0.57943 36527 ft 438 kts 70°
2026-04-21 14:01 57.20584 -0.52642 36692 ft 439 kts 70°
2026-04-21 14:01 57.21593 -0.47326 36848 ft 439 kts 70°
2026-04-21 14:01 57.22598 -0.42012 37001 ft 439 kts 70°
2026-04-21 14:02 57.23602 -0.36678 37113 ft 440 kts 71°
2026-04-21 14:02 57.24602 -0.31339 37258 ft 440 kts 71°
2026-04-21 14:02 57.25599 -0.26004 37403 ft 440 kts 71°
2026-04-21 14:03 57.27596 -0.15302 37633 ft 441 kts 71°
2026-04-21 14:03 57.29594 -0.04523 37633 ft 441 kts 71°
2026-04-21 14:04 57.31564 0.06183 37631 ft 439 kts 71°
2026-04-21 14:04 57.33534 0.16877 37633 ft 439 kts 71°
2026-04-21 14:05 57.35485 0.27579 37638 ft 439 kts 71°
2026-04-21 14:05 57.37422 0.38295 37638 ft 439 kts 71°
2026-04-21 14:06 57.39366 0.49080 37643 ft 444 kts 71°
2026-04-21 14:06 57.41324 0.60006 37634 ft 449 kts 71°
2026-04-21 14:07 57.43289 0.71039 37631 ft 450 kts 72°
2026-04-21 14:07 57.45240 0.82081 37627 ft 450 kts 72°
2026-04-21 14:08 57.47181 0.93121 37628 ft 450 kts 72°
2026-04-21 14:08 57.49117 1.04178 37635 ft 450 kts 72°
2026-04-21 14:09 57.51039 1.15245 37642 ft 450 kts 72°
2026-04-21 14:09 57.52954 1.26319 37641 ft 450 kts 72°
2026-04-21 14:10 57.54859 1.37413 37637 ft 450 kts 72°
2026-04-21 14:10 57.56754 1.48535 37601 ft 451 kts 72°
2026-04-21 14:11 57.58639 1.59663 37598 ft 451 kts 72°
2026-04-21 14:11 57.60517 1.70799 37616 ft 450 kts 72°
2026-04-21 14:12 57.62394 1.81998 37631 ft 449 kts 72°
2026-04-21 14:12 57.64249 1.93141 37609 ft 450 kts 73°
2026-04-21 14:13 57.66092 2.04298 37615 ft 449 kts 73°
2026-04-21 14:13 57.67925 2.15455 37617 ft 449 kts 73°
2026-04-21 14:14 57.69750 2.26632 37616 ft 449 kts 73°
2026-04-21 14:14 57.71562 2.37810 37615 ft 449 kts 73°
2026-04-21 14:15 57.73367 2.49007 37605 ft 450 kts 73°
2026-04-21 14:15 57.75168 2.60246 37586 ft 451 kts 73°
2026-04-21 14:16 57.76955 2.71477 37598 ft 450 kts 73°
2026-04-21 14:16 57.78730 2.82717 37644 ft 449 kts 73°
2026-04-21 14:17 57.80492 2.93949 37639 ft 450 kts 73°
2026-04-21 14:17 57.81955 3.03310 37623 ft 450 kts 74°
2026-04-21 14:18 57.83704 3.14592 37607 ft 450 kts 74°
2026-04-21 14:18 57.85442 3.25894 37597 ft 450 kts 74°
2026-04-21 14:19 57.87175 3.37194 37583 ft 450 kts 74°
2026-04-21 14:19 57.88897 3.48517 37561 ft 451 kts 74°
2026-04-21 14:20 57.90502 3.60005 37557 ft 451 kts 81°
2026-04-21 14:20 57.90604 3.71774 37564 ft 451 kts 93°
2026-04-21 14:21 57.90174 3.83543 37603 ft 451 kts 94°
2026-04-21 14:21 57.89836 3.95326 37621 ft 451 kts 92°
2026-04-21 14:22 57.89569 4.07122 37616 ft 452 kts 92°
2026-04-21 14:22 57.89231 4.18913 37615 ft 452 kts 93°
2026-04-21 14:23 57.88869 4.30705 37614 ft 452 kts 93°
2026-04-21 14:23 57.88522 4.42481 37614 ft 451 kts 93°
2026-04-21 14:24 57.88162 4.54234 37612 ft 450 kts 93°
2026-04-21 14:24 57.87783 4.65973 37601 ft 450 kts 93°
2026-04-21 14:25 57.87398 4.77678 37606 ft 449 kts 93°
2026-04-21 14:25 57.87002 4.89384 37596 ft 449 kts 94°
2026-04-21 14:26 57.86595 5.01086 37582 ft 449 kts 94°
2026-04-21 14:26 57.86181 5.12774 37568 ft 449 kts 94°
2026-04-21 14:27 57.85752 5.24467 37549 ft 449 kts 94°
2026-04-21 14:27 57.85313 5.36130 37576 ft 447 kts 94°
2026-04-21 14:28 57.84868 5.47772 37552 ft 447 kts 94°
2026-04-21 14:28 57.84406 5.59424 37533 ft 447 kts 94°
2026-04-21 14:29 57.83939 5.71056 37509 ft 447 kts 94°
2026-04-21 14:29 57.83461 5.82686 37495 ft 447 kts 95°
2026-04-21 14:30 57.82970 5.94325 37489 ft 447 kts 95°
2026-04-21 14:30 57.82471 6.05938 37477 ft 447 kts 95°
2026-04-21 14:31 57.81958 6.17572 37488 ft 447 kts 95°
2026-04-21 14:31 57.81435 6.29185 37495 ft 447 kts 95°
2026-04-21 14:32 57.80902 6.40800 37499 ft 447 kts 95°
2026-04-21 14:32 57.80358 6.52421 37504 ft 447 kts 95°
2026-04-21 14:33 57.79802 6.64024 37510 ft 447 kts 95°
2026-04-21 14:33 57.79242 6.75624 37533 ft 446 kts 95°
2026-04-21 14:34 57.78667 6.87194 37544 ft 446 kts 95°
2026-04-21 14:34 57.78084 6.98765 37548 ft 446 kts 95°
2026-04-21 14:35 57.77489 7.10343 37545 ft 446 kts 95°
2026-04-21 14:35 57.76880 7.21898 37545 ft 446 kts 95°
2026-04-21 14:36 57.76268 7.33463 37544 ft 446 kts 95°
2026-04-21 14:36 57.75645 7.45013 37540 ft 446 kts 96°
2026-04-21 14:37 57.75004 7.56564 37525 ft 446 kts 96°
2026-04-21 14:37 57.74354 7.68105 37484 ft 446 kts 96°
2026-04-21 14:38 57.73701 7.79633 37447 ft 445 kts 96°
2026-04-21 14:38 57.73039 7.91122 37447 ft 443 kts 96°
2026-04-21 14:39 57.72363 8.02541 37450 ft 440 kts 96°
2026-04-21 14:39 57.71684 8.13882 37446 ft 436 kts 96°
2026-04-21 14:40 57.71007 8.25100 37445 ft 432 kts 96°
2026-04-21 14:40 57.70323 8.36207 37445 ft 428 kts 96°
2026-04-21 14:41 57.69635 8.47231 37462 ft 429 kts 96°
2026-04-21 14:41 57.68926 8.58383 37479 ft 434 kts 96°
2026-04-21 14:42 57.68207 8.69573 37483 ft 434 kts 96°
2026-04-21 14:42 57.67410 8.80759 37478 ft 434 kts 101°
2026-04-21 14:43 57.65918 8.91678 37455 ft 433 kts 105°
2026-04-21 14:43 57.65106 8.97063 37133 ft 429 kts 105°
2026-04-21 14:43 57.64299 9.02412 36533 ft 426 kts 105°
2026-04-21 14:43 57.63515 9.07743 35908 ft 426 kts 105°
2026-04-21 14:44 57.62747 9.13076 35265 ft 425 kts 105°
2026-04-21 14:44 57.61979 9.18400 34617 ft 425 kts 105°
2026-04-21 14:44 57.61203 9.23715 33983 ft 423 kts 106°
2026-04-21 14:44 57.60422 9.28989 33367 ft 421 kts 106°
2026-04-21 14:45 57.59638 9.34249 32729 ft 420 kts 106°
2026-04-21 14:45 57.58859 9.39479 32132 ft 417 kts 106°
2026-04-21 14:45 57.58089 9.44657 31558 ft 414 kts 106°
2026-04-21 14:45 57.57321 9.49807 31000 ft 410 kts 106°
2026-04-21 14:46 57.56557 9.54909 30448 ft 407 kts 106°
2026-04-21 14:46 57.55798 9.59953 29864 ft 404 kts 106°
2026-04-21 14:46 57.55040 9.64971 29306 ft 401 kts 106°
2026-04-21 14:46 57.54288 9.69939 28757 ft 397 kts 106°
2026-04-21 14:47 57.53531 9.74931 28210 ft 393 kts 106°
2026-04-21 14:47 57.52790 9.79806 27657 ft 390 kts 107°
2026-04-21 14:47 57.52052 9.84644 27094 ft 387 kts 107°
2026-04-21 14:47 57.51327 9.89378 26569 ft 384 kts 107°
2026-04-21 14:48 57.50588 9.94193 26040 ft 380 kts 107°
2026-04-21 14:48 57.49866 9.98888 25525 ft 376 kts 107°
2026-04-21 14:48 57.49146 10.03542 24997 ft 373 kts 107°
2026-04-21 14:48 57.48431 10.08162 24468 ft 370 kts 107°
2026-04-21 14:49 57.47720 10.12744 23945 ft 368 kts 107°
2026-04-21 14:49 57.47010 10.17294 23445 ft 365 kts 107°
2026-04-21 14:49 57.46307 10.21790 22954 ft 362 kts 107°
2026-04-21 14:49 57.45605 10.26266 22462 ft 359 kts 107°
2026-04-21 14:50 57.45145 10.29205 22145 ft 357 kts 106°
2026-04-21 14:50 57.44219 10.35105 21530 ft 354 kts 106°
2026-04-21 14:50 57.43532 10.39465 21076 ft 351 kts 106°
2026-04-21 14:50 57.42856 10.43743 20631 ft 349 kts 106°
2026-04-21 14:51 57.42165 10.48102 20184 ft 346 kts 106°
2026-04-21 14:51 57.41495 10.52316 19753 ft 344 kts 106°
2026-04-21 14:51 57.40810 10.56609 19314 ft 342 kts 106°
2026-04-21 14:51 57.40137 10.60824 18884 ft 340 kts 106°
2026-04-21 14:52 57.39475 10.64966 18463 ft 338 kts 105°
2026-04-21 14:52 57.38806 10.69134 18060 ft 336 kts 105°
2026-04-21 14:52 57.38131 10.73331 17656 ft 335 kts 105°
2026-04-21 14:52 57.37465 10.77462 17242 ft 334 kts 105°
2026-04-21 14:53 57.36800 10.81570 16831 ft 333 kts 105°
2026-04-21 14:53 57.36136 10.85663 16438 ft 331 kts 105°
2026-04-21 14:53 57.35475 10.89738 16064 ft 330 kts 105°
2026-04-21 14:53 57.34814 10.93801 15692 ft 328 kts 105°
2026-04-21 14:54 57.34262 10.97882 15251 ft 325 kts 97°
2026-04-21 14:54 57.34192 11.00629 14950 ft 321 kts 85°
2026-04-21 14:54 57.34678 11.04578 14650 ft 309 kts 69°
2026-04-21 14:54 57.35499 11.08161 14437 ft 295 kts 66°
2026-04-21 14:55 57.36341 11.11528 14227 ft 282 kts 65°
2026-04-21 14:55 57.37143 11.14779 13848 ft 275 kts 66°
2026-04-21 14:55 57.37902 11.18015 13380 ft 273 kts 67°
2026-04-21 14:55 57.38630 11.21254 12883 ft 271 kts 68°
2026-04-21 14:56 57.39344 11.24481 12399 ft 269 kts 68°
2026-04-21 14:56 57.40056 11.27684 11950 ft 269 kts 67°
2026-04-21 14:56 57.40767 11.30855 11651 ft 261 kts 67°
2026-04-21 14:56 57.41452 11.33905 11350 ft 253 kts 67°
2026-04-21 14:57 57.42120 11.36895 10923 ft 250 kts 68°
2026-04-21 14:57 57.42603 11.39991 10675 ft 251 kts 82°
2026-04-21 14:57 57.42511 11.43227 10546 ft 255 kts 103°
2026-04-21 14:57 57.41862 11.46303 10420 ft 257 kts 112°
2026-04-21 14:58 57.41100 11.49263 10265 ft 249 kts 112°
2026-04-21 14:58 57.40406 11.52117 10000 ft 239 kts 109°
2026-04-21 14:58 57.39797 11.54956 9605 ft 235 kts 108°
2026-04-21 14:58 57.39210 11.57744 9290 ft 230 kts 108°
2026-04-21 14:59 57.38611 11.60432 9130 ft 221 kts 109°
2026-04-21 14:59 57.38019 11.63034 8868 ft 217 kts 109°
2026-04-21 14:59 57.37446 11.65608 8560 ft 216 kts 109°
2026-04-21 14:59 57.36880 11.68175 8240 ft 215 kts 109°
2026-04-21 15:00 57.36311 11.70730 7919 ft 214 kts 109°
2026-04-21 15:00 57.35737 11.73277 7598 ft 215 kts 109°
2026-04-21 15:00 57.35168 11.75827 7290 ft 214 kts 109°
2026-04-21 15:00 57.34603 11.78362 6987 ft 213 kts 109°
2026-04-21 15:01 57.34039 11.80883 6680 ft 211 kts 109°
2026-04-21 15:01 57.33475 11.83389 6372 ft 210 kts 109°
2026-04-21 15:01 57.32928 11.85888 6054 ft 209 kts 106°
2026-04-21 15:01 57.32650 11.88488 5729 ft 205 kts 87°
2026-04-21 15:02 57.32878 11.91057 5406 ft 202 kts 72°
2026-04-21 15:02 57.33289 11.93540 5094 ft 202 kts 71°
2026-04-21 15:02 57.33677 11.96049 5004 ft 204 kts 73°
2026-04-21 15:02 57.34172 11.98521 4985 ft 202 kts 56°
2026-04-21 15:03 57.35182 12.00223 4993 ft 202 kts 28°
2026-04-21 15:03 57.36469 12.01257 4988 ft 201 kts 22°
2026-04-21 15:03 57.37752 12.02233 4806 ft 197 kts 24°
2026-04-21 15:03 57.38974 12.03302 4641 ft 189 kts 26°
2026-04-21 15:04 57.40143 12.04388 4380 ft 187 kts 26°
2026-04-21 15:04 57.41306 12.05444 4102 ft 186 kts 26°
2026-04-21 15:04 57.42467 12.06475 3839 ft 184 kts 25°
2026-04-21 15:04 57.43604 12.07487 3578 ft 182 kts 26°
2026-04-21 15:05 57.44741 12.08511 3305 ft 181 kts 26°
2026-04-21 15:05 57.46910 12.10454 2997 ft 170 kts 25°
2026-04-21 15:05 57.47981 12.11417 2999 ft 172 kts 25°
2026-04-21 15:06 57.49045 12.12377 3005 ft 172 kts 25°
2026-04-21 15:06 57.50137 12.13360 3003 ft 172 kts 25°
2026-04-21 15:06 57.51215 12.14333 3009 ft 172 kts 26°
2026-04-21 15:06 57.52291 12.15305 3002 ft 172 kts 25°
2026-04-21 15:07 57.53336 12.16248 2964 ft 162 kts 25°
2026-04-21 15:07 57.54337 12.17152 2791 ft 157 kts 25°
2026-04-21 15:07 57.55316 12.18038 2602 ft 156 kts 25°
2026-04-21 15:07 57.56293 12.18920 2396 ft 156 kts 25°
2026-04-21 15:08 57.57257 12.19792 2199 ft 150 kts 25°
2026-04-21 15:08 57.58165 12.20615 1991 ft 141 kts 25°
2026-04-21 15:08 57.59011 12.21384 1831 ft 133 kts 24°
2026-04-21 15:08 57.59840 12.22133 1648 ft 133 kts 24°
2026-04-21 15:09 57.60668 12.22886 1468 ft 133 kts 24°
2026-04-21 15:09 57.61496 12.23636 1292 ft 132 kts 24°
2026-04-21 15:09 57.62317 12.24385 1112 ft 131 kts 24°
2026-04-21 15:09 57.63138 12.25127 951 ft 130 kts 23°
2026-04-21 15:10 57.63943 12.25856 763 ft 127 kts 24°
2026-04-21 15:10 57.64749 12.26587 610 ft 129 kts 24°
2026-04-21 15:10 57.65540 12.27307 522 ft 119 kts 24°
2026-04-21 15:10 57.66071 12.27782 520 ft 58 kts 25°
2026-04-21 15:11 57.66381 12.28058 520 ft 40 kts 27°
2026-04-21 15:11 57.66595 12.28273 520 ft 28 kts 40°
2026-04-21 15:11 57.66700 12.28535 520 ft 16 kts 50°
2026-04-21 15:11 57.66745 12.28642 520 ft 8 kts 56°
2026-04-21 15:12 57.66778 12.28733 520 ft 9 kts 55°
2026-04-21 15:12 57.66819 12.28818 520 ft 9 kts 51°
2026-04-21 15:12 57.66822 12.28927 520 ft 9 kts 116°
2026-04-21 15:12 57.66794 12.29023 520 ft 8 kts 117°
2026-04-21 15:13 57.66775 12.29102 520 ft 5 kts 114°
2026-04-21 15:13 57.66777 12.29155 520 ft 3 kts 32°
2026-04-21 15:13 57.66799 12.29179 520 ft 4 kts 38°
2026-04-21 15:13 57.66803 12.29217 520 ft 3 kts 107°
2026-04-21 15:14 57.66795 12.29255 520 ft 3 kts 115°
2026-04-21 15:14 57.66785 12.29291 520 ft 3 kts 117°
2026-04-21 15:14 57.66781 12.29307 520 ft 0 kts 115°
2026-04-21 15:14 57.66780 12.29313 520 ft 1 kts 115°